Погода в Жанакоргане

Казахстан     43°53′57″N   67°14′08″E
темп.,
°C
ветер,
м/с
пор.,
м/с
влажн.,
%
обл.,
%
осадки,
мм/ч
давл.,
гПа
погр.,
м
1 марта, пн
пн123:00+1ююв566176 0.0 102193
02:00+1ююв586311 0.0 1020110
05:00+1ююв69636 0.0 1020130
08:00+1ююв610622 0.0 1020158
11:00+7ююв68491 0.0 1020429
14:00+11ююв574018 0.0 1019770
17:00+11ю34409 0.0 1018107
20:00+5ююв115551 0.0 101822
2 марта, вт
вт223:00+5ююв345525 0.0 101825
02:00+3з33590 0.0 101924
05:00+1сз34602 0.0 102028
08:00+1зсз34697 0.0 102287
11:00+4зсз456154 0.0 1024490
14:00+5сз4565100 0.0 1024801
17:00+5сз4446100 0.0 1024757
20:00+3сз4658100 0.0 1026165
3 марта, ср
ср323:000сз4669100 0.0 1026202
02:00−1ссз347098 0.0 1026112
05:00−1ссз336499 0.0 102686
08:00−1ссз335966 0.0 1027133
11:00+2зсз114680 0.0 1027410
14:00+5ююз12360 0.0 1025758
17:00+6ююз11320 0.0 1023885
20:00+3ююв11500 0.0 102322
4 марта, чт
чт423:00+1вюв11510 0.0 102222
02:00+2юв33480 0.0 102022
05:00+2юв45551 0.0 101956
08:00+3ююв45600 0.0 101894
11:00+8ююв696333 0.0 1017471
14:00+11юз71055100 0.0 10151327
17:00+11зюз7105098 0.1 10151549
20:00+6зсз7978100 0.4 1018915
5 марта, пт
пт523:00+4зсз81178100 0.4 1022806
02:00+1зсз497658 0.0 1024484
05:00+1зсз566676 0.0 1027934
08:00−1з34764 0.0 1030238
11:00+2юз33552 0.0 1032862
14:00+4ююз12420 0.0 10301064
17:00+5в11370 0.0 10281039
20:00+3ссв34470 0.0 102784